[[{"header":{"parameterUnit":"m.s-1","parameterCategory":1,"la1":30.2991,"la2":30.254,"lo1":-89.0895,"lo2":-89.0444,"dy":0.0017,"dx":0.0017,"nx":28,"ny":28,"refTime":"2023-09-15T09:00:00:Z","depth":0,"parameterNumber":2,"parameterNumberName":"U-component_of_WINDS"},"data":[0,0,0,0,0,0,0,0,0,0,0,0,0,0,0,0,0,0,0,0,0,0,0,0,0,0,0,0,0,0,0,0,0,0,0,0,0,0,0,0,0,0,0,0,0,0,0,0,0,0,0,0,0,0,0,0,0,0,1.9345,1.9346,0,1.9407,1.9408,1.9408,1.9395,1.9394,1.9393,1.9392,1.9454,1.9456,1.9459,0,0,0,0,0,0,0,0,0,0,0,0,0,1.9214,1.9217,1.9345,1.9346,1.9347,1.9407,1.9408,1.9408,1.9396,1.9394,1.9393,1.9392,1.9453,1.9456,1.9459,0,0,0,0,0,0,0,0,0,0,0,0,0,1.9273,1.9218,1.9345,1.9348,1.9349,1.9407,1.9408,1.9409,1.9396,1.9394,1.9393,1.9391,1.9452,1.9456,1.946,1.9519,0,0,1.9472,1.9474,0,0,0,0,0,0,0,0,1.927,1.9278,1.9347,1.9348,1.9349,1.9392,1.9384,1.9446,1.9396,1.9378,1.9392,1.939,1.9434,1.944,1.9455,1.9522,1.9524,1.9472,1.9475,1.9477,1.9478,0,0,0,0,0,0,0,1.9266,1.9275,1.937,1.9348,1.9349,1.9345,1.9351,1.9396,1.9415,1.9379,1.9379,1.9386,1.9435,1.9451,1.9456,1.9525,1.9472,1.9476,1.9478,1.948,1.9641,1.9643,0,0,0,0,0,0,1.9261,1.9272,1.9368,1.9371,1.9304,1.9349,1.9356,1.938,1.9414,1.9418,1.9388,1.9385,1.9445,1.9452,1.9459,1.9528,1.9477,1.948,1.9483,1.9639,1.9641,1.9643,0,0,0,0,0,0,1.9258,1.927,1.9365,1.9321,1.9333,1.9353,1.9379,1.9382,1.9398,1.9421,1.9424,1.9401,1.9444,1.9453,1.9503,1.953,1.9482,1.9486,1.9637,1.964,1.9642,1.9668,0,0,0,0,0,0,1.9254,1.9269,1.9292,1.9322,1.9336,1.941,1.9381,1.9384,1.9405,1.9403,1.9434,1.9437,1.9443,1.9497,1.9507,1.9534,1.9489,1.9635,1.9638,1.9641,1.9665,1.9671,1.9677,0,0,0,0,0,1.925,1.9297,1.9293,1.9305,1.9365,1.9411,1.9419,1.9425,1.9408,1.943,1.9445,1.9436,1.9526,1.9503,1.9514,1.9542,1.9633,1.9637,1.9641,1.9662,1.967,1.9676,0,0,0,0,0,0,1.9268,1.9301,1.9297,1.9355,1.9381,1.9409,1.9438,1.9434,1.9464,1.9461,1.9467,1.9474,1.9525,1.9539,1.9513,1.96,1.9577,1.9583,1.9589,1.9596,1.9602,1.9596,1.9492,0,0,0,0,0,1.9279,1.9315,1.9341,1.9389,1.9403,1.9418,1.9438,1.9441,1.9467,1.9478,1.9496,1.9521,1.9555,1.9577,1.9609,1.9668,1.9673,1.9693,1.9699,1.9703,1.9708,1.9738,1.9746,1.9657,1.9657,1.9657,0,0,1.9302,1.9324,1.9346,1.9394,1.9414,1.9449,1.9427,1.9466,1.9492,1.9484,1.9532,1.9546,1.9575,1.9629,1.9654,1.9642,1.9734,1.9709,1.9712,1.9714,1.9743,1.9751,1.9759,1.966,1.9659,1.9659,0,0,1.936,1.9382,1.9424,1.9444,1.9475,1.9485,1.9495,1.9524,1.9533,1.9582,1.9576,1.9607,1.9666,1.9686,1.9704,1.977,1.9763,1.978,1.981,1.9839,1.9846,1.9852,1.9874,1.9881,1.9786,1.9786,1.9786,0,1.9384,1.9438,1.9445,1.9484,1.9505,1.95,1.9541,1.9561,1.9601,1.9614,1.9602,1.9674,1.9693,1.9751,1.9767,1.9782,1.9792,1.9776,1.9845,1.9851,1.9857,1.9877,1.9885,1.9787,1.9787,1.9787,1.9787,0,1.9464,1.9502,1.9532,1.957,1.9594,1.9634,1.9647,1.967,1.9671,1.9682,1.9731,1.9755,1.979,1.9805,1.9806,1.9862,1.9854,1.9844,1.9819,1.9867,1.9886,1.9894,1.979,1.9789,1.9789,1.9788,0,0,1.9534,1.9577,1.9587,1.9604,1.9637,1.9666,1.9706,1.9741,1.976,1.9788,1.982,1.9869,1.9859,1.9879,1.9883,1.9909,1.9957,1.9895,1.9895,1.9903,2.0017,2.0023,2.0032,1.9954,1.9955,1.9957,2.0014,0,1.9594,1.9664,1.9672,1.9733,1.9767,1.9763,1.9797,1.9821,1.9833,1.9862,1.9875,1.9909,1.9894,1.9906,1.9932,1.9946,1.9979,1.9942,1.9981,1.9983,1.9971,2.0043,2.0049,2.0102,2.0022,2.0023,2.0024,0,1.9672,1.9702,1.9767,1.9795,1.9809,1.984,1.9872,1.9901,1.9928,1.9934,1.9957,1.9957,1.9997,1.9974,2.0027,2.0001,2.0019,2.0028,2.003,2.0032,2.0004,2.0043,2.012,2.0127,2.0036,2.0035,2.0035,0,1.9713,1.977,1.9816,1.983,1.9865,1.9886,1.9901,1.9926,1.9947,1.9975,1.9988,2.0022,2.0039,2.0064,2.0073,2.0055,2.0125,2.0103,2.013,2.013,2.0143,2.0141,2.022,2.0159,2.0158,2.0158,2.0158,0,1.9777,1.9816,1.9834,1.9862,1.9905,1.9914,1.9957,1.9971,1.9994,2.0023,2.0023,2.0051,2.0062,2.0091,2.0099,2.0141,2.015,2.0155,2.0156,2.0153,2.0152,2.0162,2.0158,2.016,2.016,2.0159,2.0159,0,1.9829,1.9843,1.9892,1.9921,1.9929,1.9959,1.9984,2.001,2.0022,2.0059,2.0068,2.0087,2.0121,2.0133,2.0175,2.018,2.0228,2.0227,2.0219,2.0218,2.0244,2.024,2.0329,2.0341,2.0274,2.0275,2.0275,0,1.9867,1.9897,1.9929,1.9949,1.9965,1.9998,2.0019,2.0029,2.005,2.0083,2.0105,2.0139,2.0167,2.0222,2.0238,2.027,2.0269,2.0298,2.0273,2.0269,2.0266,2.0263,2.0265,2.0301,2.0302,2.0303,2.0303,0,1.9933,1.9938,1.9969,2.0001,2.0026,2.0052,2.0078,2.0094,2.0108,2.0132,2.0167,2.0189,2.0232,2.0265,2.0297,2.0312,2.0309,2.0311,2.0319,2.0315,2.0307,2.0309,2.0228,2.0308,2.0308,2.0307,2.0307,2.0307,1.9977,2.0003,2.0029,2.0063,2.0083,2.0107,2.0132,2.0147,2.0177,2.0212,2.0217,2.0254,2.028,2.0323,2.034,2.0368,2.036,2.0372,2.0374,2.0376,2.0376,2.0305,2.0375,2.0375,2.0374,2.0374,2.0374,0,2.0041,2.0057,2.0088,2.0123,2.015,2.0146,2.0174,2.0195,2.0228,2.0253,2.028,2.032,2.0352,2.0371,2.0404,2.0423,2.0422,2.0431,2.0428,2.0431,2.0383,2.0372,2.0431,2.0431,2.0431,2.0431,2.0431,2.0431,2.0076,2.0119,2.0128,2.018,2.0197,2.0233,2.0249,2.027,2.0289,2.0334,2.0361,2.0374,2.0395,2.0429,2.0458,2.0463,2.0474,2.0483,2.0486,2.0441,2.0435,2.0429,2.0419,2.0486,2.0486,2.0531,2.0532,2.0532]},{"header":{"parameterUnit":"m.s-1","parameterCategory":1,"la1":30.2991,"la2":30.254,"lo1":-89.0895,"lo2":-89.0444,"dy":0.0017,"dx":0.0017,"nx":28,"ny":28,"refTime":"2023-09-15T09:00:00:Z","depth":0,"parameterNumber":3,"parameterNumberName":"V-component_of_WINDS"},"data":[0,0,0,0,0,0,0,0,0,0,0,0,0,0,0,0,0,0,0,0,0,0,0,0,0,0,0,0,0,0,0,0,0,0,0,0,0,0,0,0,0,0,0,0,0,0,0,0,0,0,0,0,0,0,0,0,0,0,1.5655,1.5654,0,1.5582,1.5581,1.558,1.5507,1.5506,1.5505,1.5504,1.5429,1.5428,1.5427,0,0,0,0,0,0,0,0,0,0,0,0,0,1.5728,1.5727,1.5655,1.5654,1.5653,1.5582,1.5581,1.558,1.5507,1.5506,1.5505,1.5504,1.5429,1.5428,1.5426,0,0,0,0,0,0,0,0,0,0,0,0,0,1.568,1.5726,1.5655,1.5608,1.5603,1.5582,1.5581,1.558,1.5507,1.5506,1.5504,1.5503,1.5429,1.5428,1.5426,1.5446,0,0,1.5421,1.5421,0,0,0,0,0,0,0,0,1.5682,1.5677,1.5616,1.5611,1.5606,1.5552,1.5579,1.5535,1.5508,1.5544,1.5504,1.5502,1.5471,1.5466,1.5455,1.5442,1.5439,1.5421,1.542,1.5419,1.5419,0,0,0,0,0,0,0,1.5686,1.568,1.5626,1.5615,1.5609,1.559,1.5581,1.557,1.5516,1.554,1.5535,1.5527,1.5468,1.5457,1.5453,1.5438,1.5421,1.542,1.5419,1.5418,1.5434,1.5435,0,0,0,0,0,0,1.5697,1.5683,1.5628,1.5624,1.5641,1.559,1.558,1.5571,1.5516,1.5507,1.5529,1.5524,1.5461,1.5455,1.545,1.5467,1.5419,1.5418,1.5417,1.5432,1.5434,1.5436,0,0,0,0,0,0,1.5698,1.5692,1.5631,1.5652,1.5643,1.559,1.558,1.557,1.5559,1.5508,1.5497,1.5528,1.5459,1.5452,1.5447,1.5463,1.5417,1.5416,1.5431,1.5433,1.5435,1.5502,0,0,0,0,0,0,1.5701,1.5693,1.5701,1.5653,1.5642,1.563,1.5581,1.557,1.5557,1.555,1.5504,1.5495,1.5458,1.545,1.5445,1.546,1.5414,1.5429,1.5432,1.5434,1.5498,1.5507,1.5514,0,0,0,0,0,1.5704,1.5723,1.5702,1.5696,1.565,1.5631,1.5625,1.5582,1.5559,1.5565,1.5531,1.5496,1.5463,1.545,1.5444,1.5459,1.5428,1.5431,1.5434,1.5495,1.5505,1.5513,0,0,0,0,0,0,1.5775,1.5716,1.5692,1.5696,1.5669,1.5619,1.5626,1.5594,1.5573,1.5568,1.5515,1.5505,1.5505,1.5481,1.5468,1.5473,1.544,1.5442,1.5488,1.5497,1.5505,1.551,1.5413,0,0,0,0,0,1.5792,1.5782,1.573,1.5739,1.5727,1.5679,1.5669,1.5638,1.5608,1.5596,1.5562,1.5533,1.5516,1.5506,1.5487,1.5495,1.5483,1.5502,1.551,1.5516,1.5518,1.5518,1.5526,1.5446,1.5446,1.5446,0,0,1.5825,1.5792,1.5789,1.5753,1.5728,1.5718,1.567,1.5662,1.5653,1.5595,1.5586,1.5561,1.5525,1.5526,1.5524,1.5506,1.5538,1.552,1.5526,1.5524,1.5522,1.553,1.5537,1.5448,1.5448,1.5447,0,0,1.588,1.5855,1.5859,1.5835,1.5798,1.5766,1.5767,1.5721,1.5701,1.5692,1.5648,1.5636,1.5608,1.5584,1.5568,1.5613,1.5579,1.5608,1.5647,1.5647,1.5654,1.5659,1.5673,1.5678,1.5611,1.5611,1.5611,0,1.5926,1.591,1.5864,1.5858,1.5843,1.579,1.5792,1.5771,1.573,1.572,1.5701,1.5663,1.5635,1.5628,1.5639,1.5628,1.5626,1.5612,1.5657,1.5661,1.5666,1.5678,1.5683,1.5614,1.5614,1.5614,1.5613,0,1.5967,1.5956,1.5964,1.5925,1.5911,1.5909,1.5862,1.5853,1.5823,1.5792,1.5783,1.5748,1.572,1.5716,1.5688,1.5704,1.5694,1.5667,1.5632,1.5678,1.5688,1.5693,1.562,1.5618,1.5617,1.5616,0,0,1.6065,1.6001,1.6004,1.5985,1.594,1.593,1.5925,1.5898,1.589,1.5864,1.5857,1.5834,1.5807,1.5789,1.5757,1.5758,1.5792,1.5729,1.5727,1.574,1.5806,1.5825,1.5832,1.577,1.5771,1.5771,1.5808,0,1.6111,1.61,1.6058,1.6058,1.6046,1.5995,1.599,1.5962,1.5933,1.5918,1.5885,1.5869,1.5836,1.5824,1.5823,1.5788,1.5804,1.5785,1.5761,1.5761,1.577,1.5838,1.5859,1.5895,1.5812,1.5813,1.5813,0,1.6163,1.6139,1.6139,1.6093,1.6086,1.6083,1.6053,1.604,1.6006,1.5984,1.5964,1.5928,1.5918,1.5886,1.5871,1.5859,1.5846,1.5828,1.5828,1.5823,1.5789,1.5832,1.5906,1.5911,1.582,1.5819,1.5819,0,1.6232,1.62,1.6195,1.618,1.6127,1.6125,1.6103,1.6067,1.6053,1.6027,1.6017,1.5991,1.5976,1.5955,1.5912,1.5894,1.5901,1.5866,1.5881,1.5882,1.5883,1.5884,1.5954,1.5879,1.5879,1.5879,1.5879,0,1.6286,1.6287,1.6225,1.6221,1.622,1.6172,1.6172,1.6144,1.6113,1.6102,1.6057,1.6047,1.5992,1.5976,1.5942,1.5933,1.5927,1.5908,1.5898,1.5911,1.5913,1.5901,1.5896,1.588,1.588,1.588,1.5879,0,1.6362,1.6321,1.6311,1.6261,1.6249,1.625,1.6206,1.62,1.6169,1.6155,1.6149,1.6099,1.6077,1.6033,1.5999,1.5976,1.5974,1.5959,1.5986,1.598,1.5996,1.5994,1.606,1.6065,1.5989,1.5989,1.599,0,1.6399,1.6398,1.6348,1.6338,1.6317,1.6302,1.6287,1.6239,1.6225,1.6185,1.6183,1.6158,1.6135,1.6103,1.6062,1.6036,1.6018,1.6043,1.6014,1.6025,1.6016,1.6015,1.6014,1.6049,1.605,1.6051,1.6052,0,1.6467,1.6447,1.6427,1.64,1.6384,1.636,1.6334,1.6328,1.6274,1.626,1.6237,1.622,1.6185,1.616,1.6127,1.6102,1.6067,1.6061,1.6063,1.6075,1.6089,1.6079,1.6001,1.606,1.6059,1.6058,1.6058,1.6057,1.6523,1.6519,1.6483,1.6463,1.6438,1.6414,1.6405,1.6372,1.6353,1.6321,1.6294,1.6273,1.6237,1.6189,1.6166,1.6148,1.6131,1.6134,1.6135,1.6136,1.614,1.6094,1.6142,1.6142,1.6142,1.6142,1.6141,0,1.6587,1.6561,1.6543,1.6508,1.6491,1.6461,1.643,1.6418,1.64,1.637,1.6348,1.6321,1.6296,1.6253,1.6224,1.6218,1.6201,1.6212,1.6211,1.6205,1.6158,1.6158,1.6226,1.6226,1.6226,1.6226,1.6226,1.6226,1.6619,1.661,1.6585,1.6563,1.6537,1.6517,1.6501,1.6478,1.6454,1.6426,1.6405,1.6378,1.6341,1.6309,1.6284,1.6272,1.6262,1.6278,1.6261,1.6217,1.6209,1.6201,1.6201,1.6277,1.6277,1.6309,1.6309,1.6309]}]]